This demonstration page uses our WeatherBlox Daily Observations layout. Learn more.

Left ArrowRight Arrow

36.17497, -115.13722

Hourly Observations for September 3, 2020

Temp ( °F °C ) Dew Point ( °F °C ) Humidity (%) Winds ( mph kmh ) Pressure ( in mb ) Visibility ( mi km ) Precip ( " mm )
12:53 am 00:53 Clear 86 30 37 2.8 18 18 N N/A 29.87 1011 10 16 N/A
1:53 am 01:53 Clear 83 28.3 38 3.3 20 20 NW 7 11 29.87 1012 10 16 N/A
2:53 am 02:53 Clear 83 28.3 35 1.7 18 18 NNW 7 11 29.88 1012 10 16 N/A
3:53 am 03:53 Clear 83 28.3 34 1.1 17 17 NW 5 7 29.89 1012 10 16 N/A
4:53 am 04:53 Clear 81 27.2 34 1.1 18 18 WNW 7 11 29.89 1012 10 16 N/A
5:53 am 05:53 Clear 79 26.1 34 1.1 20 20 NW 5 7 29.91 1013 10 16 N/A
6:53 am 06:53 Sunny 80 26.7 33 0.6 18 18 NW 7 11 29.94 1014 10 16 N/A
7:53 am 07:53 Sunny 85 29.4 35 1.7 17 17 N N/A 29.95 1014 10 16 N/A
8:53 am 08:53 Sunny 90 32.2 36 2.2 15 15 N N/A 29.96 1015 10 16 N/A
9:53 am 09:53 Sunny 95 35 36 2.2 13 13 N N/A 29.96 1015 10 16 N/A
10:53 am 10:53 Sunny 97 36.1 41 5 14 14 VRB 5 7 29.95 1014 10 16 N/A
11:53 am 11:53 Sunny 100 37.8 39 3.9 12 12 NE 5 7 29.93 1014 10 16 N/A
12:53 pm 12:53 Sunny 101 38.3 36 2.2 10 10 N N/A 29.91 1013 10 16 N/A
1:53 pm 13:53 Sunny 105 40.6 34 1.1 8 8 VRB 3 6 29.88 1012 10 16 N/A
2:53 pm 14:53 Sunny 106 41.1 34 1.1 8 8 N N/A 29.84 1011 10 16 N/A
3:53 pm 15:53 Sunny 108 42.2 33 0.6 7 7 N N/A 29.82 1010 10 16 N/A
4:53 pm 16:53 Sunny 107 41.7 32 undefined 7 7 SSE 6 9 29.80 1009 10 16 N/A
5:53 pm 17:53 Sunny 106 41.1 33 0.6 8 8 SSW 6 9 29.79 1009 10 16 N/A
6:53 pm 18:53 Sunny 106 41.1 33 0.6 8 8 WSW 5 7 29.79 1009 10 16 N/A
7:53 pm 19:53 Clear 102 38.9 35 1.7 10 10 SW 6 9 29.80 1009 10 16 N/A
8:53 pm 20:53 Clear 99 37.2 37 2.8 12 12 W 8 13 29.81 1010 10 16 N/A
9:53 pm 21:53 Clear 96 35.6 36 2.2 12 12 WNW 7 11 29.82 1010 10 16 N/A
10:53 pm 22:53 Clear 92 33.3 35 1.7 13 13 NW 8 13 29.83 1010 10 16 N/A
11:53 pm 23:53 Clear 93 33.9 32 undefined 11 11 NW 12 19 29.83 1010 10 16 N/A

Powered by AerisWeather